Observations for Trim Patrick St
| Time | AQI | Temp °C | Hum % | Pres Pa | CO μg/m³ | H₂S μg/m³ | NO μg/m³ | NO₂ μg/m³ | O₃ μg/m³ | SO₂ μg/m³ | PM1 μg/m³ | PM2.5 μg/m³ | PM10 μg/m³ |
|---|---|---|---|---|---|---|---|---|---|---|---|---|---|
| Thursday 27 August 2026 | |||||||||||||
| 17:39 | 3 | 21.2 | 75 | 38,460 | 0 | 2.46 | 1.16 | 11.94 | 53.95 | 2.85 | 15.71 | 22.61 | 24.87 |
| 17:38 | 3 | 21.2 | 75 | 38,460 | 0 | 2.07 | 1.46 | 10.57 | 55.05 | 3.78 | 16.57 | 21.89 | 24.08 |
| 17:37 | 3 | 21.2 | 75 | 38,460 | 0 | 3.23 | 1.67 | 12.95 | 48.67 | 3.64 | 14.86 | 20.47 | 22.52 |
| 17:36 | 3 | 21.2 | 75 | 38,460 | 0 | 4.2 | 1.61 | 20.22 | 52.47 | 3.1 | 17.43 | 24.01 | 26.41 |
| 17:35 | 3 | 21.2 | 75 | 38,460 | 0 | 3.67 | 1.18 | 19.94 | 43.79 | 3.13 | 19.14 | 26.86 | 27.85 |
| 17:34 | 3 | 21.2 | 75 | 38,460 | 0 | 3.25 | 1.95 | 13.07 | 54.73 | 3.35 | 18.29 | 23.31 | 25.64 |
| 17:33 | 3 | 21.2 | 75 | 38,460 | 0 | 2.54 | 1.59 | 13.44 | 46.81 | 3.07 | 15.71 | 21.19 | 23.31 |
| 17:32 | 3 | 21.2 | 75 | 38,460 | 0 | 3.12 | 1.97 | 12.75 | 53.94 | 3.64 | 14.86 | 19.76 | 21.73 |
| 17:31 | 3 | 21.2 | 75 | 38,460 | 0 | 3.52 | 2.43 | 12.75 | 52.35 | 3.26 | 15.71 | 21.89 | 24.08 |
| 17:30 | 3 | 21.2 | 75 | 38,460 | 0.01 | 6.02 | 2.32 | 21.1 | 50.74 | 2.79 | 15.71 | 22.6 | 24.86 |
| 17:29 | 3 | 21.2 | 75 | 38,460 | 0.07 | 6.18 | 1.6 | 29.45 | 47.56 | 2.9 | 17.43 | 21.9 | 24.09 |
| 17:28 | 3 | 21.2 | 75 | 38,460 | 0 | 3.07 | 1.58 | 11.56 | 54.11 | 3.84 | 14 | 19.78 | 21.76 |
| 17:27 | 3 | 21.2 | 75 | 38,460 | 0 | 4.33 | 0.86 | 12.64 | 57.25 | 2.84 | 14 | 21.2 | 23.32 |
| 17:26 | 3 | 21.2 | 75 | 38,460 | 0 | 3.99 | 0.68 | 13.17 | 56.93 | 2.69 | 16.57 | 21.92 | 24.12 |
| 17:25 | 3 | 21.2 | 75 | 38,460 | 0 | 3.89 | 1.05 | 14.17 | 56.31 | 2.68 | 18.29 | 24.77 | 27.25 |
| 17:24 | 3 | 21.3 | 74 | 38,460 | 0 | 2.56 | 1.12 | 12.11 | 48.68 | 4.08 | 13.14 | 19.1 | 21.01 |
| 17:23 | 3 | 21.3 | 74 | 38,460 | 0 | 3.54 | 1.29 | 20.02 | 39.89 | 3.6 | 14.86 | 21.24 | 23.36 |
| 17:22 | 3 | 21.3 | 74 | 38,460 | 0.03 | 3.38 | 2.35 | 18.38 | 40.61 | 4.21 | 13.14 | 19.82 | 21.81 |
| 17:21 | 3 | 21.3 | 74 | 38,460 | 0 | 2.93 | 2.59 | 19.48 | 39.14 | 3.73 | 17.43 | 21.25 | 23.37 |
| 17:20 | 3 | 21.3 | 74 | 38,460 | 0 | 3.28 | 3.01 | 12.67 | 45.03 | 3.56 | 12.29 | 19.1 | 21.01 |